Date String (YYYY-MM-DD hh:mm:ss) UTC,Instrument flags,Ambient pressure (hPa),Sample flow (lpm),Bypass flow (lpm),Sample temperature (°C),Ambient temperature (°C),ASC tube jacket temperature (°C),LED temperature (°C),Box temperature (°C),Sample RH (%),Span deviation,Mass concentration (μg/m³),Mass concentration (μg/m³),Mass concentration (μg/m³)
DateTimeUTC,F1_M11,P_M11,Q1_M11,Q2_M11,T1_M11,T2_M11,T3_M11,T4_M11,T5_M11,U1_M11,ZSPAN_M11,X2_M11,X0_M11,X1_M11
2022-04-10 21:00:00,,0816.5,4.99,0.00,22.5,21.6,00.0,31.4,24.3,06.3,0000.0,0003.98,0010.03,0002.46
2022-04-10 21:01:00,,0816.5,4.99,0.00,22.5,21.6,00.0,31.4,24.3,06.2,0000.0,0003.97,0009.73,0002.47
2022-04-10 21:02:00,,0816.5,5.02,0.00,22.5,21.6,00.0,31.4,24.3,06.4,0000.0,0003.93,0009.37,0002.47
2022-04-10 21:03:00,,0816.4,5.00,0.00,22.5,21.6,00.0,31.4,24.3,06.6,0000.0,0003.96,0009.51,0002.47
2022-04-10 21:04:00,,0816.5,5.00,0.00,22.5,21.6,00.0,31.4,24.2,06.3,0000.0,0004.03,0010.11,0002.47
2022-04-10 21:05:00,,0816.4,4.99,0.00,22.5,21.6,00.0,31.4,24.2,06.0,0000.0,0004.04,0010.88,0002.48
2022-04-10 21:06:00,,0816.4,5.00,0.00,22.5,21.6,00.0,31.4,24.3,06.1,0000.0,0004.07,0011.26,0002.49
2022-04-10 21:07:00,,0816.4,4.99,0.00,22.5,21.6,00.0,31.4,24.3,06.1,0000.0,0004.07,0010.76,0002.48
2022-04-10 21:08:00,,0816.3,5.01,0.00,22.5,21.6,00.0,31.4,24.3,06.5,0000.0,0004.03,0010.67,0002.49
2022-04-10 21:09:00,,0816.2,5.02,0.00,22.5,21.6,00.0,31.5,24.3,06.2,0000.0,0004.05,0010.72,0002.49
2022-04-10 21:10:00,,0816.5,5.01,0.00,22.5,21.6,00.0,31.5,24.3,06.6,0000.0,0004.05,0010.64,0002.48
2022-04-10 21:11:00,,0816.5,5.00,0.00,22.5,21.6,00.0,31.5,24.3,06.0,0000.0,0004.11,0010.78,0002.49
2022-04-10 21:12:00,,0816.5,5.00,0.00,22.5,21.6,00.0,31.5,24.3,06.0,0000.0,0004.14,0010.91,0002.50
2022-04-10 21:13:00,,0816.5,5.00,0.00,22.5,21.6,00.0,31.5,24.3,05.7,0000.0,0004.20,0011.62,0002.50
2022-04-10 21:14:00,,0816.6,5.00,0.00,22.5,21.6,00.0,31.5,24.3,05.7,0000.0,0004.24,0011.71,0002.51
2022-04-10 21:15:00,,0816.5,5.01,0.00,22.5,21.6,00.0,31.5,24.2,05.8,0000.0,0004.14,0011.31,0002.50
2022-04-10 21:16:00,,0816.5,5.00,0.00,22.5,21.6,00.0,31.5,24.2,05.6,0000.0,0004.14,0010.60,0002.50
2022-04-10 21:17:00,,0816.5,5.00,0.00,22.5,21.6,00.0,31.5,24.2,06.1,0000.0,0004.13,0009.82,0002.50
2022-04-10 21:18:00,,0816.4,5.00,0.00,22.5,21.6,00.0,31.5,24.2,05.8,0000.0,0004.15,0009.96,0002.51
2022-04-10 21:19:00,,0816.5,5.00,0.00,22.5,21.6,00.0,31.5,24.2,06.0,0000.0,0004.11,0009.80,0002.49
2022-04-10 21:20:00,,0816.5,5.00,0.00,22.5,21.6,00.0,31.5,24.2,06.4,0000.0,0004.09,0009.79,0002.49
2022-04-10 21:21:00,,0816.5,5.00,0.00,22.5,21.6,00.0,31.5,24.2,06.2,0000.0,0004.10,0009.75,0002.49
2022-04-10 21:22:00,,0816.6,4.99,0.00,22.5,21.6,00.0,31.5,24.3,05.9,0000.0,0004.11,0009.97,0002.48
2022-04-10 21:23:00,,0816.4,5.00,0.00,22.5,21.6,00.0,31.5,24.2,06.0,0000.0,0004.11,0010.81,0002.47
2022-04-10 21:24:00,,0816.5,4.99,0.00,22.5,21.6,00.0,31.5,24.2,06.4,0000.0,0004.07,0010.22,0002.47
2022-04-10 21:25:00,,0816.5,5.00,0.00,22.5,21.6,00.0,31.5,24.2,06.5,0000.0,0004.07,0010.42,0002.46
2022-04-10 21:26:00,,0816.5,5.00,0.00,22.5,21.6,00.0,31.5,24.2,06.4,0000.0,0004.19,0010.85,0002.47
2022-04-10 21:27:00,,0816.5,5.01,0.00,22.4,21.6,00.0,31.5,24.2,06.1,0000.0,0004.18,0010.74,0002.48
2022-04-10 21:28:00,,0816.5,5.00,0.00,22.4,21.6,00.0,31.5,24.2,06.2,0000.0,0004.15,0010.66,0002.48
2022-04-10 21:29:00,,0816.5,5.00,0.00,22.4,21.6,00.0,31.5,24.2,06.3,0000.0,0004.14,0010.96,0002.47
2022-04-10 21:30:00,,0816.6,5.00,0.00,22.5,21.6,00.0,31.5,24.2,06.2,0000.0,0004.15,0011.23,0002.47
2022-04-10 21:31:00,,0816.4,5.00,0.00,22.5,21.7,00.0,31.5,24.3,06.1,0000.0,0004.15,0011.32,0002.48
2022-04-10 21:32:00,,0816.4,5.00,0.00,22.5,21.7,00.0,31.5,24.3,06.2,0000.0,0004.13,0011.97,0002.50
2022-04-10 21:33:00,,0816.4,5.00,0.00,22.5,21.7,00.0,31.5,24.3,06.1,0000.0,0004.12,0012.05,0002.49
2022-04-10 21:34:00,,0816.3,5.00,0.00,22.5,21.7,00.0,31.5,24.3,06.1,0000.0,0004.13,0011.35,0002.48
2022-04-10 21:35:00,,0816.4,5.00,0.00,22.6,21.7,00.0,31.5,24.4,06.4,0000.0,0004.18,0011.27,0002.47
2022-04-10 21:36:00,,0816.5,5.00,0.00,22.6,21.7,00.0,31.5,24.4,06.2,0000.0,0004.10,0010.80,0002.45
2022-04-10 21:37:00,,0816.5,4.99,0.00,22.6,21.7,00.0,31.5,24.4,06.4,0000.0,0004.05,0010.61,0002.45
2022-04-10 21:38:00,,0816.6,4.99,0.00,22.6,21.7,00.0,31.5,24.3,06.0,0000.0,0004.07,0010.67,0002.45
2022-04-10 21:39:00,,0816.7,5.00,0.00,22.6,21.7,00.0,31.5,24.3,05.9,0000.0,0004.16,0010.96,0002.46
2022-04-10 21:40:00,,0816.9,4.99,0.00,22.6,21.7,00.0,31.5,24.4,06.0,0000.0,0004.13,0010.68,0002.44
2022-04-10 21:41:00,,0816.5,5.01,0.00,22.6,21.8,00.0,31.5,24.4,06.3,0000.0,0004.13,0010.96,0002.44
2022-04-10 21:42:00,,0816.5,5.00,0.00,22.6,21.8,00.0,31.5,24.5,06.3,0000.0,0004.09,0011.70,0002.42
2022-04-10 21:43:00,,0816.5,5.00,0.00,22.7,21.8,00.0,31.5,24.5,06.1,0000.0,0004.12,0011.04,0002.41
2022-04-10 21:44:00,,0816.4,5.00,0.00,22.7,21.8,00.0,31.5,24.5,06.2,0000.0,0004.10,0010.96,0002.43
2022-04-10 21:45:00,,0816.4,5.00,0.00,22.7,21.9,00.0,31.6,24.6,06.0,0000.0,0004.08,0010.98,0002.44
2022-04-10 21:46:00,,0816.4,5.00,0.00,22.8,22.0,00.0,31.6,24.6,06.2,0000.0,0004.05,0010.85,0002.46
2022-04-10 21:47:00,,0816.4,5.00,0.00,22.8,22.0,00.0,31.6,24.7,06.0,0000.0,0004.10,0010.93,0002.48
2022-04-10 21:48:00,,0816.4,5.00,0.00,22.8,22.1,00.0,31.6,24.7,05.9,0000.0,0004.12,0010.87,0002.47
2022-04-10 21:49:00,,0816.3,4.99,0.00,22.8,22.1,00.0,31.6,24.7,05.8,0000.0,0004.13,0011.04,0002.47
2022-04-10 21:50:00,,0816.4,5.01,0.00,22.9,22.2,00.0,31.6,24.8,06.0,0000.0,0004.13,0011.37,0002.45
2022-04-10 21:51:00,,0816.4,5.01,0.00,22.9,22.2,00.0,31.7,24.8,06.1,0000.0,0004.16,0012.52,0002.44
2022-04-10 21:52:00,,0816.4,5.00,0.00,22.9,22.2,00.0,31.7,24.7,06.1,0000.0,0004.17,0012.14,0002.44
2022-04-10 21:53:00,,0816.5,4.99,0.00,22.9,22.2,00.0,31.7,24.8,06.1,0000.0,0004.17,0011.44,0002.44
2022-04-10 21:54:00,,0816.4,5.00,0.00,22.9,22.2,00.0,31.7,24.8,06.2,0000.0,0004.17,0011.27,0002.45
2022-04-10 21:55:00,,0816.6,5.00,0.00,22.9,22.1,00.0,31.7,24.7,06.3,0000.0,0004.17,0011.33,0002.43
2022-04-10 21:56:00,,0816.4,5.00,0.00,22.9,22.1,00.0,31.7,24.7,06.1,0000.0,0004.22,0011.43,0002.43
2022-04-10 21:57:00,,0816.4,5.00,0.00,22.9,22.2,00.0,31.7,24.7,06.0,0000.0,0004.20,0011.97,0002.41
2022-04-10 21:58:00,,0816.4,5.00,0.00,22.9,22.2,00.0,31.8,24.7,06.0,0000.0,0004.25,0013.28,0002.40
2022-04-10 21:59:00,,0816.4,5.00,0.00,22.9,22.2,00.0,31.8,24.8,05.9,0000.0,0004.25,0013.22,0002.40
